Location: Newark
(13.8117°N, 3.6025°W)
Time: 21:24:05
(UTC+00:00)

Explorer 7 - All Passes

Search period start: 19 August 2019 00:00
Search period end: 29 August 2019 00:00
Orbit: 485 x 680 km, 50.3° (Epoch: 18 August)

Date Brightness Start Highest point End Pass type
(mag) Time Alt. Az. Time Alt. Az. Time Alt. Az.
19 Aug - 07:26:25 10° SSE 07:28:48 14° SE 07:31:12 10° E daylight
19 Aug - 09:04:24 10° SW 09:09:11 53° NW 09:13:52 10° NNE daylight
19 Aug - 17:44:15 10° NE 17:44:34 10° NE 17:44:52 10° NE daylight
19 Aug - 19:21:29 10° NW 19:25:08 45° SW 19:28:42 10° SSE visible
20 Aug - 07:29:42 10° S 07:33:46 26° SE 07:37:48 10° ENE daylight
20 Aug - 09:10:02 10° WSW 09:14:15 28° NW 09:18:23 10° N daylight
20 Aug - 17:46:49 10° N 17:49:45 20° NE 17:52:37 10° E daylight
20 Aug - 19:27:14 10° WNW 19:30:04 20° SW 19:32:52 10° S visible
21 Aug - 07:33:59 10° SSW 07:38:43 50° SE 07:43:26 10° NE daylight
21 Aug - 09:16:26 10° W 09:19:23 16° NW 09:22:20 10° N daylight
21 Aug - 17:51:10 10° NNW 17:54:52 42° NE 17:58:27 10° ESE daylight
22 Aug - 07:38:49 10° SW 07:43:43 83° NW 07:48:36 10° NE daylight
22 Aug - 17:56:00 10° NW 17:59:54 82° SW 18:03:40 10° SE daylight
23 Aug - 06:05:15 10° SSE 06:08:22 17° SE 06:11:30 10° E daylight
23 Aug - 07:44:06 10° WSW 07:48:45 43° NW 07:53:23 10° NNE daylight
23 Aug - 16:22:23 10° NNE 16:24:22 13° NE 16:26:19 10° ENE daylight
23 Aug - 18:01:19 10° WNW 18:04:52 34° SW 18:08:18 10° SSE daylight
24 Aug - 06:09:00 10° S 06:13:19 32° SE 06:17:40 10° ENE daylight
24 Aug - 07:49:56 10° W 07:53:51 24° NW 07:57:45 10° N daylight
24 Aug - 16:26:09 10° N 16:29:32 26° NE 16:32:48 10° ESE daylight
24 Aug - 18:07:23 10° W 18:09:47 16° SW 18:12:10 10° SSW daylight
25 Aug - 06:13:28 10° SSW 06:18:16 63° SE 06:23:07 10° NE daylight
25 Aug - 07:56:44 10° WNW 07:59:03 13° NW 08:01:22 10° NNW daylight
25 Aug - 16:30:41 10° NNW 16:34:38 57° NE 16:38:23 10° SE daylight
26 Aug - 04:42:14 10° SE 04:43:00 10° SE 04:43:46 10° ESE visible
26 Aug - 06:18:26 10° SW 06:23:16 67° NW 06:28:09 10° NNE daylight
26 Aug - 16:35:41 10° NW 16:39:38 61° SW 16:43:24 10° SSE daylight
27 Aug - 04:44:21 10° S 04:47:55 21° SE 04:51:33 10° ENE visible
27 Aug - 06:23:54 10° WSW 06:28:20 35° NW 06:32:49 10° NNE daylight
27 Aug - 15:01:21 10° N 15:04:08 17° NE 15:06:49 10° E daylight
27 Aug - 16:41:11 10° WNW 16:44:34 27° SW 16:47:51 10° S daylight
28 Aug - 04:48:23 10° SSW 04:52:51 39° SE 04:57:25 10° ENE visible
28 Aug - 06:29:58 10° W 06:33:29 20° NW 06:37:01 10° N daylight
28 Aug - 15:05:31 10° NNW 15:09:18 34° NE 15:12:53 10° ESE daylight
28 Aug - 16:47:42 10° W 16:49:28 13° SW 16:51:13 10° SSW daylight
